KRUPKA Weather Reports


Display with metric or nautical units.
time (UTC)temp
F
wind
direction
speed
MPH
gust
MPH
rain 1hr
in
rain 24hr
in
rain mn
in
humidity
%
barometer
mb
20260504232503 59 44 9.0 11.0 0.00 0.00 0.00 56
20260504232006 59 35 7.0 11.0 0.00 0.00 0.00 56
20260504231510 59 41 4.0 7.0 0.00 0.00 0.00 55
20260504231002 59 53 4.0 7.0 0.00 0.00 0.00 55
20260504230503 61 60 7.0 9.0 0.00 0.00 0.00 55
20260504230003 59 60 7.0 9.0 0.00 0.00 0.00 55
20260504225503 59 57 7.0 9.0 0.00 0.00 0.00 56
20260504225003 59 50 7.0 9.0 0.00 0.00 0.00 56
20260504224504 59 39 4.0 9.0 0.00 0.00 0.00 57
20260504224003 59 36 4.0 9.0 0.00 0.00 0.00 57
20260504223508 59 27 7.0 9.0 0.00 0.00 0.00 58
20260504223003 59 32 7.0 9.0 0.00 0.00 0.00 58
20260504222502 59 31 4.0 9.0 0.00 0.00 0.00 58
20260504222006 59 22 7.0 11.0 0.00 0.00 0.00 58
20260504221504 59 10 7.0 11.0 0.00 0.00 0.00 59
20260504221003 59 15 7.0 9.0 0.00 0.00 0.00 59
20260504220504 59 26 7.0 9.0 0.00 0.00 0.00 58
20260504220004 59 17 4.0 11.0 0.00 0.00 0.00 58
20260504215503 59 17 9.0 13.0 0.00 0.00 0.00 59
20260504215004 59 18 7.0 11.0 0.00 0.00 0.00 59
20260504214503 59 12 7.0 13.0 0.00 0.00 0.00 58
20260504214003 59 19 9.0 16.0 0.00 0.00 0.00 58
20260504213503 59 14 7.0 11.0 0.00 0.00 0.00 58
20260504213004 59 14 9.0 13.0 0.00 0.00 0.00 58
20260504212504 59 9 9.0 16.0 0.00 0.00 0.00 58
20260504212005 59 10 9.0 13.0 0.00 0.00 0.00 58
20260504211503 59 14 7.0 9.0 0.00 0.00 0.00 57
20260504211003 59 12 9.0 11.0 0.00 0.00 0.00 57
20260504210504 59 10 9.0 11.0 0.00 0.00 0.00 57
20260504210004 59 21 9.0 13.0 0.00 0.00 0.00 57
20260504205503 59 14 9.0 13.0 0.00 0.00 0.00 57
20260504205003 59 14 7.0 9.0 0.00 0.00 0.00 57
20260504204503 59 17 7.0 11.0 0.00 0.00 0.00 57
20260504204003 59 23 7.0 11.0 0.00 0.00 0.00 57
20260504203503 59 4 4.0 9.0 0.00 0.00 0.00 57
20260504203004 59 31 7.0 13.0 0.00 0.00 0.00 57
20260504202503 59 4 9.0 11.0 0.00 0.00 0.00 57
20260504202005 59 6 7.0 11.0 0.00 0.00 0.00 57
20260504201504 59 10 7.0 13.0 0.00 0.00 0.00 57
20260504201003 59 15 9.0 13.0 0.00 0.00 0.00 57
20260504200504 59 17 9.0 13.0 0.00 0.00 0.00 58
20260504200003 59 21 9.0 13.0 0.00 0.00 0.00 58
20260504195504 59 10 7.0 11.0 0.00 0.00 0.00 58
20260504195004 59 13 9.0 13.0 0.00 0.00 0.00 58
20260504194504 59 5 9.0 18.0 0.00 0.00 0.00 58
20260504194003 59 7 9.0 13.0 0.00 0.00 0.00 58
20260504193504 59 16 9.0 16.0 0.00 0.00 0.00 59
20260504193003 59 13 9.0 16.0 0.00 0.00 0.00 58
20260504192503 59 8 7.0 18.0 0.00 0.00 0.00 59
20260504192007 59 5 9.0 16.0 0.00 0.00 0.00 58
20260504191503 59 13 9.0 16.0 0.00 0.00 0.00 58
20260504191003 59 25 11.0 16.0 0.00 0.00 0.00 58
20260504190504 59 3 11.0 16.0 0.00 0.00 0.00 58
20260504190004 59 13 9.0 16.0 0.00 0.00 0.00 58
20260504185503 59 12 9.0 16.0 0.00 0.00 0.00 58
20260504185004 59 16 9.0 16.0 0.00 0.00 0.00 58
20260504184504 59 9 9.0 11.0 0.00 0.00 0.00 57
20260504184003 59 15 9.0 13.0 0.00 0.00 0.00 57
20260504183503 59 3 9.0 13.0 0.00 0.00 0.00 57
20260504183003 59 1 11.0 16.0 0.00 0.00 0.00 57
20260504182503 59 6 9.0 13.0 0.00 0.00 0.00 57
20260504182008 59 5 9.0 13.0 0.00 0.00 0.00 56
20260504181503 61 9 7.0 11.0 0.00 0.00 0.00 56
20260504181004 61 354 4.0 11.0 0.00 0.00 0.00 56
20260504180508 61 2 9.0 13.0 0.00 0.00 0.00 56
20260504180004 61 2 7.0 11.0 0.00 0.00 0.00 55
20260504175503 61 353 7.0 11.0 0.00 0.00 0.00 55
20260504175003 61 2 9.0 16.0 0.00 0.00 0.00 55
20260504174504 61 5 7.0 11.0 0.00 0.00 0.00 55
20260504174003 61 8 9.0 16.0 0.00 0.00 0.00 55
20260504173504 61 4 11.0 16.0 0.00 0.00 0.00 55
20260504173003 61 19 9.0 16.0 0.00 0.00 0.00 55
20260504172503 61 9 7.0 11.0 0.00 0.00 0.00 55
20260504172008 61 358 9.0 13.0 0.00 0.00 0.00 55
20260504171504 61 15 9.0 13.0 0.00 0.00 0.00 55
20260504171003 61 1 9.0 13.0 0.00 0.00 0.00 55
20260504170504 61 7 9.0 16.0 0.00 0.00 0.00 55
20260504151003 66 21 4.0 7.0 0.00 0.00 0.00 48
20260504150503 66 19 7.0 9.0 0.00 0.00 0.00 48
20260504141003 66 213 2.0 4.0 0.00 0.00 0.00 44
20260504140503 66 240 2.0 4.0 0.00 0.00 0.00 44
20260504130504 68 191 7.0 13.0 0.00 0.00 0.00 42
20260504110503 66 239 2.0 7.0 0.00 0.00 0.00 44
20260504100504 64 201 4.0 7.0 0.00 0.00 0.00 46
20260504082004 63 292 0.0 0.0 0.00 0.00 0.00 49
20260504081503 59 252 0.0 0.0 0.00 0.00 0.00 50
20260504081004 59 234 2.0 4.0 0.00 0.00 0.00 49
20260504080504 59 248 0.0 2.0 0.00 0.00 0.00 48
20260504050504 54 166 2.0 2.0 0.00 0.00 0.00 50
20260504050004 54 96 2.0 2.0 0.00 0.00 0.00 50
20260504045503 54 123 2.0 4.0 0.00 0.00 0.00 50
20260504045003 55 87 2.0 4.0 0.00 0.00 0.00 49
20260504044503 55 91 4.0 4.0 0.00 0.00 0.00 49
20260504044004 55 56 2.0 4.0 0.00 0.00 0.00 49
20260504043504 55 60 4.0 4.0 0.00 0.00 0.00 50
20260504043003 55 41 2.0 2.0 0.00 0.00 0.00 49
20260504042503 55 66 2.0 4.0 0.00 0.00 0.00 49
20260504042006 55 77 4.0 4.0 0.00 0.00 0.00 49
20260504041504 55 82 2.0 2.0 0.00 0.00 0.00 48
20260504041003 55 69 2.0 4.0 0.00 0.00 0.00 48
20260504040503 55 56 4.0 4.0 0.00 0.00 0.00 49
20260504040004 55 47 4.0 7.0 0.00 0.00 0.00 48
20260504035502 55 37 4.0 7.0 0.00 0.00 0.00 48
20260504035003 55 76 2.0 4.0 0.00 0.00 0.00 47
20260504034503 55 50 2.0 4.0 0.00 0.00 0.00 48
20260504034002 55 41 2.0 4.0 0.00 0.00 0.00 48
20260504033504 55 47 4.0 7.0 0.00 0.00 0.00 48
20260504033003 57 57 7.0 9.0 0.00 0.00 0.00 48
20260504032503 57 51 7.0 9.0 0.00 0.00 0.00 47
20260504032004 57 20 2.0 7.0 0.00 0.00 0.00 46
20260504031503 57 14 4.0 11.0 0.00 0.00 0.00 46
20260504031003 57 17 7.0 11.0 0.00 0.00 0.00 46
20260504030503 57 7 4.0 11.0 0.00 0.00 0.00 46
20260504030003 55 8 4.0 7.0 0.00 0.00 0.00 46
20260504025502 55 7 4.0 9.0 0.00 0.00 0.00 47
20260504025004 55 354 4.0 7.0 0.00 0.00 0.00 46
20260504024503 55 329 4.0 7.0 0.00 0.00 0.00 46
20260504024003 55 320 2.0 7.0 0.00 0.00 0.00 46
20260504023503 55 341 2.0 4.0 0.00 0.00 0.00 46
20260504023004 57 346 2.0 7.0 0.00 0.00 0.00 46
20260504022502 57 355 4.0 7.0 0.00 0.00 0.00 45
20260504022007 57 345 2.0 2.0 0.00 0.00 0.00 45
20260504021504 57 304 2.0 2.0 0.00 0.00 0.00 45
20260504021004 57 305 2.0 4.0 0.00 0.00 0.00 45
20260504020503 57 303 2.0 4.0 0.00 0.00 0.00 45
20260504020002 57 308 0.0 2.0 0.00 0.00 0.00 45
20260504015503 57 339 2.0 7.0 0.00 0.00 0.00 46
20260504015003 57 338 0.0 2.0 0.00 0.00 0.00 46
20260504014504 57 348 4.0 9.0 0.00 0.00 0.00 46
20260504014003 57 321 2.0 4.0 0.00 0.00 0.00 46
20260504013503 57 9 4.0 7.0 0.00 0.00 0.00 46
20260504013003 57 359 2.0 9.0 0.00 0.00 0.00 46
20260504012503 57 349 2.0 4.0 0.00 0.00 0.00 46
20260504012005 57 13 2.0 4.0 0.00 0.00 0.00 45
20260504011503 57 5 4.0 7.0 0.00 0.00 0.00 45
20260504011004 59 13 2.0 4.0 0.00 0.00 0.00 45
20260504010503 59 18 0.0 2.0 0.00 0.00 0.00 44
20260504010003 59 51 2.0 2.0 0.00 0.00 0.00 44
20260504005503 59 50 2.0 2.0 0.00 0.00 0.00 44
20260504005004 59 11 2.0 2.0 0.00 0.00 0.00 44
20260504004003 59 36 0.0 0.0 0.00 0.00 0.00 44
20260504002503 59 21 0.0 0.0 0.00 0.00 0.00 44
20260504002006 59 30 2.0 2.0 0.00 0.00 0.00 44
20260504001503 59 344 2.0 2.0 0.00 0.00 0.00 44
20260504001003 59 49 0.0 0.0 0.00 0.00 0.00 44
20260504000503 59 23 2.0 2.0 0.00 0.00 0.00 44
20260504000004 59 29 0.0 0.0 0.00 0.00 0.00 43
20260503235003 59 342 2.0 4.0 0.00 0.00 0.00 43
20260503234504 59 54 0.0 2.0 0.00 0.00 0.00 43
20260503234004 59 178 0.0 0.0 0.00 0.00 0.00 43
20260503233504 59 168 2.0 2.0 0.00 0.00 0.00 43
20260503233004 59 142 0.0 0.0 0.00 0.00 0.00 43